User: anonymous
Location: Brainerd
(46.3580°N, 94.2010°W)
Time: 21:36:44
(UTC-05:00)
Language:

CZ-4C R/B - Orbit

View from above orbital plane
View from above orbital plane
View from above satellite
View from above satellite

Ground track
Ground track

The orbit data is extracted from the following two-line orbital elements,

1 32290U 07055B   14209.78550297  .00003574  00000-0  14236-3 0  9136
2 32290 097.5734 284.7585 0086722 263.9134 208.0909 15.22482027370602
Epoch (UTC): 28 July 2014 18:51:07
Eccentricity: 0.0086722
inclination: 97.5734°
perigee height: 439 km
apogee height: 558 km
right ascension of ascending node: 284.7585°
argument of perigee: 263.9134°
revolutions per day: 15.22482027
mean anomaly at epoch: 208.0909°
orbit number at epoch: 37060

The dashed part of the orbit path shows where the satellite is in the earth's shadow,  

DLR